Eagle River, WI

2:15 PM CST on February 20, 2017 (GMT -0600)
Eagle River Union

Weather History for KEGV - June, 2013

Change the Weather History Date:

Saturday, June 15, 2013

  Actual Average Record
Temperature  
Mean Temperature 58 °F -  
Max Temperature 65 °F 77 °F 87 °F (2007)
Min Temperature 52 °F 48 °F 30 °F (1999)
Degree Days  
Heating Degree Days 6    
Growing Degree Days 8 (Base 50)    
Moisture  
Dew Point 58 °F    
Average Humidity 91    
Maximum Humidity 100    
Minimum Humidity 64    
Precipitation  
Precipitation 0.38 in - - ()
Sea Level Pressure  
Sea Level Pressure 29.93 in    
Wind  
Wind Speed 4 mph (SSW)    
Max Wind Speed 14 mph    
Max Gust Speed -    
Visibility 7 miles    
Events Fog , Rain    
Averages and records for this station are not official NWS values.
T = Trace of Precipitation, MM = Missing Value Source: NWS Daily Summary

Daily Weather History Graph

Daily Weather History Graph

Search for Another Location

Airport or City:

Trip Planner

Search our weather history database for the weather conditions in past years. The results will help you decide how hot, cold, wet, or windy it might be!

Date:

Astronomy

Jun. 15, 2013 Rise Set
Actual Time 5:05 AM CDT 8:49 PM CDT
Civil Twilight 4:27 AM CDT 9:27 PM CDT
Nautical Twilight 3:35 AM CDT 10:19 PM CDT
Astronomical Twilight 2:24 AM CDT 11:31 PM CDT
Moon 12:00 PM CDT (6/15) 12:06 AM CDT (6/15)
Length of Visible Light 17h 00m
Length of Day
15h 43m
Waxing Crescent, 40% of the Moon is Illuminated
Jun 15
Waxing Crescent
Jun 16
First Quarter
Jun 23
Full
Jun 29
Last Quarter
Jul 8
New

Hourly Weather History & Observations

Time (CDT) Temp. Dew Point Humidity Pressure Visibility Wind Dir Wind Speed Gust Speed Precip Events Conditions
12:15 AM 61.7 °F 49.5 °F 64% 30.00 in 10.0 mi SSE 3.5 mph - N/A   Overcast
12:35 AM 61.2 °F 50.0 °F 67% 30.01 in 10.0 mi Calm Calm - N/A   Overcast
12:55 AM 60.8 °F 50.2 °F 68% 30.01 in 10.0 mi South 3.5 mph - N/A   Overcast
1:15 AM 60.3 °F 50.2 °F 69% 30.01 in 10.0 mi South 3.5 mph - N/A   Mostly Cloudy
1:35 AM 59.9 °F 50.0 °F 70% 30.00 in 10.0 mi South 3.5 mph - N/A   Scattered Clouds
1:55 AM 59.7 °F 50.2 °F 71% 30.00 in 10.0 mi South 3.5 mph - N/A   Mostly Cloudy
2:15 AM 60.1 °F 50.0 °F 69% 29.99 in 10.0 mi South 3.5 mph - N/A   Overcast
2:35 AM 59.9 °F 49.8 °F 69% 29.97 in 10.0 mi SSE 4.6 mph - N/A   Mostly Cloudy
2:55 AM 59.0 °F 49.8 °F 72% 29.96 in 10.0 mi South 4.6 mph - N/A   Scattered Clouds
3:15 AM 59.4 °F 50.0 °F 71% 29.98 in 10.0 mi Calm Calm - N/A   Mostly Cloudy
3:35 AM 59.7 °F 50.0 °F 70% 29.98 in 10.0 mi South 3.5 mph - N/A   Overcast
3:55 AM 59.9 °F 50.2 °F 70% 29.98 in 10.0 mi South 3.5 mph - N/A   Overcast
4:15 AM 59.5 °F 50.5 °F 72% 29.97 in 10.0 mi Calm Calm - N/A   Overcast
4:35 AM 59.5 °F 50.9 °F 73% 29.97 in 10.0 mi SSE 3.5 mph - N/A Rain Light Rain
4:55 AM 58.6 °F 51.3 °F 76% 29.97 in 10.0 mi Calm Calm - N/A Rain Light Rain
5:15 AM 58.8 °F 52.7 °F 80% 29.99 in 10.0 mi Calm Calm - N/A Rain Light Rain
5:35 AM 57.4 °F 56.3 °F 96% 29.98 in 10.0 mi ESE 3.5 mph - N/A   Light Drizzle
5:55 AM 58.3 °F 56.5 °F 94% 29.98 in 10.0 mi Calm Calm - N/A   Overcast
6:15 AM 58.6 °F 56.7 °F 93% 29.98 in 10.0 mi East 4.6 mph - N/A   Overcast
6:35 AM 58.3 °F 57.4 °F 97% 29.97 in 5.0 mi SE 3.5 mph - 0.02 in Rain Light Rain
6:55 AM 58.5 °F 57.7 °F 97% 29.97 in 10.0 mi East 3.5 mph - 0.02 in   Light Drizzle
7:15 AM 58.3 °F 57.7 °F 98% 29.96 in 10.0 mi ESE 4.6 mph - N/A Rain Light Rain
7:35 AM 59.0 °F 57.4 °F 94% 29.95 in 10.0 mi SE 4.6 mph - N/A   Overcast
7:55 AM 59.0 °F 57.6 °F 95% 29.96 in 10.0 mi South 3.5 mph - N/A   Overcast
8:15 AM 58.8 °F 57.6 °F 96% 29.95 in 10.0 mi South 4.6 mph - N/A   Overcast
8:35 AM 58.6 °F 58.1 °F 98% 29.95 in 10.0 mi SE 3.5 mph - N/A Rain Light Rain
8:55 AM 59.2 °F 58.1 °F 96% 29.95 in 10.0 mi South 3.5 mph - N/A   Overcast
9:55 AM 59.5 °F 59.4 °F 99% 29.95 in 3.0 mi South 5.8 mph - 0.01 in Rain Rain
10:15 AM 59.9 °F 59.9 °F 100% 29.95 in 2.5 mi Calm Calm - 0.02 in Rain Rain
10:35 AM 59.9 °F 59.9 °F 100% 29.95 in 2.5 mi SSW 4.6 mph - 0.04 in Rain Rain
10:55 AM 61.0 °F 60.8 °F 99% 29.94 in 2.5 mi South 5.8 mph - 0.04 in Rain Rain
11:35 AM 61.3 °F 61.0 °F 99% 29.94 in 10.0 mi SSW 5.8 mph - N/A   Overcast
11:55 AM 61.5 °F 60.8 °F 97% 29.94 in 10.0 mi SW 6.9 mph - N/A   Overcast
12:15 PM 62.1 °F 61.5 °F 98% 29.94 in 10.0 mi SW 3.5 mph - N/A   Overcast
12:35 PM 62.2 °F 61.7 °F 98% 29.93 in 3.0 mi SW 4.6 mph - N/A   Overcast
12:55 PM 62.1 °F 61.7 °F 99% 29.92 in 4.0 mi SSW 3.5 mph - N/A   Overcast
1:15 PM 62.1 °F 61.5 °F 98% 29.93 in 4.0 mi SW 8.1 mph - N/A   Overcast
1:35 PM 62.4 °F 61.7 °F 97% 29.94 in 5.0 mi SW 8.1 mph - N/A   Overcast
1:55 PM 63.1 °F 62.2 °F 97% 29.93 in 7.0 mi SW 4.6 mph - N/A   Overcast
2:15 PM 63.5 °F 62.4 °F 96% 29.93 in 10.0 mi SW 6.9 mph - N/A   Overcast
2:35 PM 63.7 °F 62.6 °F 96% 29.91 in 10.0 mi SW 6.9 mph - N/A   Overcast
2:55 PM 63.7 °F 62.6 °F 96% 29.91 in 7.0 mi SW 4.6 mph - N/A   Overcast
3:15 PM 64.4 °F 63.1 °F 96% 29.91 in 7.0 mi SW 5.8 mph - N/A   Overcast
3:35 PM 65.3 °F 63.9 °F 95% 29.90 in 10.0 mi SSW 3.5 mph - N/A   Overcast
3:55 PM 64.8 °F 63.5 °F 96% 29.89 in 7.0 mi SW 4.6 mph - N/A   Overcast
4:15 PM 65.3 °F 63.9 °F 95% 29.89 in 7.0 mi West 9.2 mph - N/A   Overcast
4:35 PM 64.8 °F 63.9 °F 97% 29.89 in 7.0 mi West 6.9 mph - N/A   Overcast
4:55 PM 64.4 °F 64.2 °F 99% 29.89 in 2.0 mi West 4.6 mph - N/A   Drizzle
5:15 PM 64.4 °F 64.4 °F 100% 29.89 in 1.8 mi West 3.5 mph - N/A   Drizzle
6:15 PM 64.4 °F 64.4 °F 100% 29.89 in 1.5 mi Calm Calm - N/A   Drizzle
6:35 PM 64.4 °F 64.4 °F 100% 29.89 in 1.5 mi WSW 3.5 mph - N/A Rain Light Rain
6:55 PM 64.2 °F 64.2 °F 100% 29.89 in 4.0 mi WNW 3.5 mph - 0.01 in Rain Rain
7:15 PM 64.2 °F 64.2 °F 100% 29.89 in 3.0 mi West 6.9 mph - 0.08 in Rain Heavy Rain
7:35 PM 64.4 °F 64.4 °F 100% 29.89 in 2.5 mi NW 13.8 mph - 0.22 in Rain Heavy Rain
7:55 PM 62.8 °F 61.3 °F 95% 29.87 in 4.0 mi NNW 10.4 mph - 0.27 in Rain Heavy Rain
8:15 PM 61.3 °F 60.4 °F 97% 29.85 in 10.0 mi North 6.9 mph - 0.02 in Rain Light Rain
8:35 PM 60.3 °F 59.0 °F 96% 29.83 in 10.0 mi NE 3.5 mph - 0.02 in   Scattered Clouds
8:55 PM 60.1 °F 59.4 °F 97% 29.82 in 10.0 mi Calm Calm - 0.02 in   Clear
9:15 PM 58.8 °F 58.8 °F 100% 29.82 in 5.0 mi Calm Calm - N/A   Clear
9:55 PM 56.3 °F 56.3 °F 100% 29.83 in 0.2 mi WSW 3.5 mph - 0.01 in Fog Fog
10:15 PM 56.3 °F 56.3 °F 100% 29.83 in 0.2 mi Calm Calm - N/A Fog Fog
10:35 PM 54.7 °F 54.7 °F 100% 29.84 in 0.2 mi Calm Calm - N/A Fog Fog
10:55 PM 52.7 °F 52.7 °F 100% 29.85 in 0.2 mi Calm Calm - N/A Fog Fog
11:15 PM 53.6 °F 53.6 °F 100% 29.86 in 0.2 mi Calm Calm - N/A Fog Fog
11:35 PM 56.1 °F 56.1 °F 100% 29.86 in 5.0 mi SW 5.8 mph - N/A   Scattered Clouds
11:55 PM 57.7 °F 57.7 °F 100% 29.87 in 7.0 mi WSW 8.1 mph - N/A   Scattered Clouds